RH
3 4 5 5 6 5 5 5 8 10 11 16 18 19 24 30 18 20 17 16 25 23 17 29 17 28 37 67 67 72 73 64 67 72 68 73 82 90 93 92 82 71 56 9
4 5 5 5 7 8 6 6 7 9 10 12 13 22 19 40 44 24 39 53 39 26 23 22 22 16 20 27 33 49 63 72 79 80 83 93 92 84 91 82 87 77 54 22
4 4 5 6 10 12 11 8 9 8 11 15 17 24 14 15 33 27 46 53 42 37 14 12 27 13 19 15 18 26 38 57 68 83 90 96 96 98 90 86 88 83 84 72
5 5 5 7 15 16 16 14 10 11 14 23 19 36 21 17 25 34 33 31 29 28 13 11 11 23 11 20 14 17 25 40 53 70 86 91 88 94 91 86 83 80 80 68
10 7 7 13 16 16 21 16 13 16 17 23 24 20 24 25 31 35 38 30 29 28 13 11 9 14 14 10 19 14 16 25 37 50 74 89 79 77 82 76 78 78 73 67
15 15 20 23 21 19 20 18 19 20 20 21 26 18 23 27 39 46 48 38 41 29 20 13 10 9 17 13 14 16 11 14 22 30 38 72 76 79 77 77 79 73 82 83
19 20 21 22 22 21 20 20 24 19 21 26 27 25 34 48 56 56 55 41 43 40 48 34 15 12 8 15 18 14 16 14 12 20 23 37 57 67 71 72 75 68 67 77
27 28 28 28 29 30 20 21 32 32 25 35 36 33 44 43 40 53 46 38 47 44 49 42 26 25 17 8 16 22 14 12 17 13 19 24 30 36 48 58 63 49 50 66
32 36 32 32 41 31 44 38 34 27 27 28 32 40 35 48 40 45 44 36 32 41 43 38 38 30 20 20 15 16 20 16 13 14 14 19 28 29 27 34 37 40 36 37
41 40 37 52 45 45 59 49 50 34 31 28 30 38 48 50 49 47 38 31 29 35 39 41 30 31 22 23 22 19 22 17 15 11 14 16 18 30 30 27 32 35 35 45
37 33 58 63 62 55 56 51 60 43 30 29 36 45 45 56 58 65 54 57 33 33 41 44 28 28 27 24 22 14 27 26 22 16 11 12 17 19 30 31 31 34 48 59
62 57 51 64 83 78 74 65 87 79 51 34 39 64 57 71 71 76 80 69 52 40 38 47 28 33 36 41 35 16 17 31 33 29 20 11 16 16 24 29 33 36 40 50
52 59 59 62 82 93 96 90 72 58 71 69 53 42 67 74 71 72 72 73 63 51 51 37 43 39 49 48 42 27 16 14 27 41 32 23 16 16 14 21 30 34 36 41
66 61 69 64 58 74 92 95 91 78 54 60 38 28 72 72 73 65 71 77 65 52 50 37 45 53 54 47 35 26 18 21 22 38 40 35 29 26 22 18 43 50 48 43
100 98 95 91 76 56 60 83 90 92 81 57 41 38 56 78 85 84 78 75 67 70 61 58 60 59 46 28 20 21 20 25 39 42 42 42 47 43 48 38 37 44 56 44
97 99 98 100 96 89 77 53 60 75 86 84 68 46 54 69 78 85 85 73 48 38 49 58 64 57 56 45 52 44 42 28 26 57 54 53 51 51 53 51 53 59 55 46
50 69 96 98 97 97 92 87 76 68 65 73 89 82 58 77 79 78 84 86 77 58 48 43 38 54 69 75 73 70 66 54 38 34 60 60 55 50 54 52 54 50 45 39
71 79 71 72 96 97 98 96 93 91 86 76 80 75 72 76 84 92 82 98 94 78 51 40 41 50 55 52 56 52 62 59 42 41 52 64 58 52 50 41 36 30 27 30
75 76 75 82 74 55 58 76 81 90 91 89 87 86 80 72 73 83 92 95 93 96 94 74 58 56 57 58 50 56 58 56 50 39 36 66 66 45 39 38 38 35 29 31
72 84 82 82 84 78 67 78 70 68 64 64 66 68 68 64 63 69 84 95 91 96 94 81 80 75 72 65 56 54 60 60 56 53 52 66 55 53 55 54 52 47 38 36
71 74 80 93 88 78 77 84 95 90 78 84 83 86 86 81 85 80 85 94 98 95 82 84 90 84 69 62 61 71 61 69 70 79 74 63 64 65 59 50 45 41 39 39
83 78 73 72 76 82 66 71 79 79 84 88 96 97 96 94 89 89 97 96 94 88 94 97 95 91 82 70 72 71 65 65 81 70 80 76 71 67 57 49 42 56 63 60
81 77 75 82 74 66 61 64 68 70 67 73 74 75 84 91 88 89 96 96 100 97 91 92 89 88 94 97 94 85 85 76 70 64 58 73 76 79 64 55 53 82 75 43
83 77 71 69 67 64 62 65 72 72 92 93 86 80 73 72 73 95 96 96 95 84 99 98 97 88 79 76 90 84 94 86 83 85 65 76 71 77 69 61 57 63 59 72
58 58 52 54 56 59 57 57 62 81 79 85 89 89 91 90 80 95 96 98 98 97 96 87 83 95 92 67 72 72 71 72 72 77 92 82 90 97 89 81 66 53 63 69
40 41 42 42 44 42 46 48 47 48 58 72 76 91 94 94 90 88 78 91 94 91 92 83 92 93 84 92 84 77 76 64 67 65 84 91 95 95 96 94 89 65 82 61
Wind_Speed
13 11 12 11 13 13 12 8 10 10 2 6 5 6 3 6 6 6 9 11 13 11 8 8 2 3 5 7 6 6 7 9 14 15 14 14 12 15 15 28 25 21 18 18
18 18 15 14 15 15 14 10 11 11 7 5 5 2 2 3 3 9 18 17 16 15 10 5 5 2 4 5 6 7 8 7 9 12 12 12 14 11 11 29 22 20 19 17
20 21 16 14 16 16 14 12 13 9 7 5 4 1 2 3 4 13 16 15 13 15 11 5 3 4 2 3 3 6 9 8 7 9 10 11 13 15 17 26 20 21 22 20
19 21 19 17 16 16 14 14 16 8 1 5 2 1 7 9 6 8 10 12 11 11 10 9 2 1 4 3 3 3 6 10 11 12 13 13 14 14 18 21 20 20 21 21
20 20 17 14 16 14 14 18 16 5 5 7 8 4 4 3 3 5 8 12 11 11 8 9 6 2 5 4 5 5 5 6 9 12 14 16 16 15 13 15 13 16 19 20
15 17 12 11 15 15 18 16 11 5 6 10 11 9 8 6 1 4 5 10 14 15 9 7 6 4 4 2 5 5 5 4 5 8 11 16 16 16 14 13 14 14 21 19
15 13 14 14 15 16 15 13 9 8 9 11 15 11 7 7 3 8 4 3 12 10 10 7 2 5 3 2 4 4 6 4 4 5 9 13 16 17 18 18 19 20 19 21
12 11 11 12 14 16 17 14 11 12 12 17 20 14 12 14 12 10 5 2 2 7 7 5 2 3 5 2 4 6 5 6 6 6 7 9 13 17 19 20 19 19 19 20
14 13 16 16 20 20 16 15 16 18 17 16 23 21 18 15 11 11 12 8 5 8 4 6 7 7 6 6 4 6 8 8 8 8 9 8 9 12 16 19 19 19 19 20
17 14 19 20 20 20 16 15 13 15 16 16 19 24 20 17 14 18 18 13 8 7 6 10 5 7 7 6 7 5 5 11 11 12 11 9 8 9 12 15 17 17 17 17
25 25 20 24 24 22 21 19 13 14 16 13 10 17 17 15 15 16 21 17 13 8 11 12 5 5 3 4 9 8 7 8 11 11 12 12 10 9 11 13 13 14 14 16
24 24 25 23 22 23 22 20 12 14 8 15 17 18 18 15 16 17 21 20 20 15 12 4 2 7 9 5 8 13 11 12 12 13 13 13 14 11 11 11 12 13 15 15
33 32 27 26 29 26 25 21 23 19 16 14 20 23 22 23 21 21 24 23 24 19 12 7 8 7 13 11 13 14 14 14 14 16 15 14 16 14 11 10 11 12 12 14
36 35 34 31 24 27 30 28 29 27 26 25 26 23 24 22 18 25 24 25 28 25 22 21 7 8 12 12 14 13 14 12 12 17 18 17 16 14 14 14 13 12 13 14
41 41 40 38 35 34 34 34 35 35 33 32 27 30 30 24 26 29 32 35 32 29 25 22 5 10 14 3 9 12 15 15 13 15 19 19 19 17 16 17 17 17 17 16
50 50 48 43 42 43 43 36 37 40 42 40 38 33 35 36 35 35 39 37 34 30 27 29 22 19 15 16 20 18 22 23 19 16 19 19 20 19 16 16 16 18 18 18
51 59 58 54 51 47 48 48 45 43 42 45 47 45 43 40 42 44 41 41 40 40 36 35 30 26 21 21 20 22 31 29 22 21 20 20 22 20 18 16 16 18 19 20
47 45 50 61 61 59 54 52 51 48 48 47 49 49 50 51 47 51 48 40 41 42 41 37 33 34 29 31 30 27 28 31 29 25 22 23 22 21 19 17 17 19 19 18
48 50 52 52 54 60 58 61 62 60 57 57 58 56 54 53 57 55 51 51 49 45 44 46 42 40 38 42 38 28 24 22 23 25 26 23 24 22 20 19 20 21 21 22
44 46 50 53 55 56 50 48 52 53 55 52 51 50 48 49 54 55 50 48 51 45 47 48 49 48 45 50 46 29 22 20 23 25 27 27 26 25 23 25 26 26 25 25
38 40 43 47 52 55 56 49 54 54 50 51 52 51 49 49 48 53 61 60 57 54 54 52 48 50 55 52 46 37 30 23 26 28 32 33 31 29 29 30 29 29 27 27
32 35 37 39 43 48 50 51 49 52 55 57 59 57 50 51 54 57 55 54 58 60 59 53 56 56 55 52 41 38 36 31 30 32 35 35 33 33 31 31 30 28 28 29
32 33 35 39 42 44 42 42 43 44 43 46 49 52 53 54 56 58 55 59 63 57 62 63 61 58 53 54 46 40 42 39 37 37 37 39 40 39 38 35 32 33 32 26
33 34 34 36 39 40 40 41 42 43 44 42 41 40 40 40 46 46 50 53 64 67 67 59 50 57 56 57 53 50 48 41 42 41 42 42 44 44 44 41 37 34 32 28
28 32 34 35 36 37 40 41 41 42 45 46 46 46 44 44 43 44 43 49 50 54 66 65 66 63 59 54 51 49 48 50 49 49 53 48 46 48 49 42 38 32 32 29
25 28 33 34 35 36 36 40 40 38 41 45 49 48 48 49 48 47 49 51 46 47 47 50 53 57 66 59 56 52 52 52 52 47 55 51 45 50 45 41 39 35 33 30
Wind_Direction
275 269 263 268 264 273 276 297 308 305 287 60 73 350 12 44 27 63 55 29 40 28 20 9 125 164 180 197 198 189 176 190 191 193 198 208 237 209 209 210 199 195 202 207
268 262 264 265 274 277 282 283 292 298 332 3 29 283 111 135 26 82 79 50 33 24 14 3 343 178 191 203 217 212 193 195 205 197 197 226 194 207 232 200 185 194 204 204
261 263 260 257 263 267 269 273 267 275 345 349 51 0 311 90 110 108 85 65 40 23 15 11 335 316 234 215 227 230 207 194 210 210 198 190 201 194 164 177 193 204 211 210
256 261 263 263 261 262 266 267 266 273 327 309 342 48 330 12 75 131 75 69 58 30 9 3 20 282 256 224 201 231 220 199 200 210 209 212 224 209 180 187 198 208 215 211
242 253 260 273 257 249 238 248 253 247 199 228 255 241 265 143 110 116 68 81 62 48 12 348 358 299 225 225 214 205 201 213 206 201 211 223 221 224 208 199 203 203 208 209
249 239 244 255 246 242 230 240 240 222 229 241 258 277 283 304 256 122 40 91 73 61 24 6 358 324 248 219 233 233 212 199 221 221 217 224 222 222 220 215 220 215 204 215
242 243 229 223 225 224 219 231 247 248 234 232 254 265 268 257 267 217 227 78 89 75 48 9 352 341 350 250 274 242 243 234 230 230 232 232 232 231 233 231 230 230 223 223
222 230 227 233 235 246 250 247 265 272 248 215 250 263 233 254 258 218 262 254 64 33 39 42 215 300 303 308 230 261 261 240 243 250 234 238 244 239 235 238 242 246 248 245
232 232 233 244 246 251 256 268 268 264 258 242 246 255 257 253 255 245 248 257 324 351 34 22 197 220 256 289 291 242 260 265 253 239 245 245 246 250 246 243 245 249 251 245
231 230 239 239 249 259 254 252 260 256 251 255 240 242 255 257 270 280 279 281 303 317 3 352 201 169 207 242 276 295 262 256 261 265 255 249 252 256 253 246 243 246 249 245
238 236 222 229 243 251 250 253 257 257 250 238 243 236 241 236 242 259 277 288 296 306 323 322 243 153 162 224 268 277 266 244 260 264 262 253 252 254 257 256 250 245 243 244
242 241 220 227 226 247 248 237 219 256 260 242 226 214 229 223 241 264 269 278 287 299 293 298 192 354 332 275 255 270 262 243 252 262 257 251 241 242 249 257 256 253 252 250
262 259 249 224 214 221 242 245 246 232 215 221 233 214 232 231 236 255 268 279 284 292 278 298 305 311 333 309 255 252 260 259 249 256 258 253 245 242 240 245 249 247 249 256
263 263 261 254 243 238 238 247 250 250 247 236 241 233 228 239 261 249 261 266 272 277 285 297 327 285 316 289 269 262 266 268 269 254 253 251 251 243 241 235 235 248 256 257
249 252 258 260 257 247 237 239 249 253 258 255 252 249 233 235 242 247 245 249 263 274 286 287 300 297 309 338 348 340 307 284 280 263 256 253 252 246 246 243 248 253 257 257
245 248 248 250 254 258 258 259 248 250 254 257 263 257 249 246 250 249 259 264 262 259 269 286 280 297 309 268 303 315 325 325 290 273 261 252 248 245 248 255 253 252 255 260
247 248 248 246 245 246 253 254 255 259 253 255 256 264 267 258 260 255 254 258 261 266 267 274 286 296 297 283 289 289 293 299 306 275 262 256 252 251 247 258 263 265 267 270
239 241 247 248 246 246 245 245 246 248 257 259 260 259 260 263 263 263 251 253 260 264 264 265 280 283 285 290 288 294 284 281 279 280 262 256 255 250 247 250 255 262 267 267
245 245 244 244 244 244 244 248 251 251 253 253 255 256 257 257 258 261 259 256 254 255 258 266 269 274 280 291 294 292 286 268 268 273 256 253 248 247 248 256 262 268 268 267
250 246 248 251 253 254 247 249 250 248 247 248 248 251 254 257 254 256 258 259 263 262 262 265 267 269 272 282 286 274 273 256 254 253 247 242 239 243 251 257 262 266 268 269
255 252 250 250 252 254 256 248 248 252 253 250 249 249 249 250 253 253 254 257 260 263 265 264 265 269 274 274 274 273 267 245 243 238 234 240 245 247 253 257 261 264 270 271
250 251 252 251 253 253 257 263 257 253 251 251 253 245 240 251 253 249 250 254 255 255 258 259 263 266 269 269 260 264 264 254 240 233 234 239 242 251 251 252 257 263 269 268
252 247 245 248 252 257 258 259 262 263 259 257 254 256 257 256 254 251 250 249 247 250 251 251 255 254 250 258 257 256 261 267 244 237 233 235 244 250 251 252 253 258 262 268
261 260 256 254 253 254 254 257 258 259 261 261 259 258 254 256 253 250 253 251 248 247 244 247 245 252 256 256 252 253 256 256 249 240 234 234 237 240 247 251 251 254 259 265
261 261 263 261 260 259 259 257 255 255 258 259 260 257 258 256 250 250 252 245 247 251 250 250 249 247 252 247 249 250 252 252 250 247 234 232 235 237 234 239 247 249 257 264
258 257 258 260 261 259 256 260 260 256 250 254 255 258 255 252 253 258 259 249 247 246 254 247 245 246 245 245 244 250 251 252 251 249 242 239 234 239 242 228 238 244 252 261